�������l�o���
Date,Time,MP-1(��Sv/h),MP-2(��Sv/h),MP-3(��Sv/h),MP-4(��Sv/h),MP-5(��Sv/h),MP-6(��Sv/h),MP-7(��Sv/h),MP-8(��Sv/h),����,����(m/s),���J
2017/11/18,00:00,0.934,1.501,0.953,1.778,1.222,0.504,0.920,0.854,��,7.4,��
2017/11/18,00:10,0.935,1.501,0.952,1.775,1.224,0.503,0.920,0.856,��,7.6,��
2017/11/18,00:20,0.934,1.501,0.951,1.778,1.223,0.503,0.917,0.855,��,7.5,��
2017/11/18,00:30,0.933,1.501,0.952,1.778,1.225,0.505,0.917,0.855,��,7.3,��
2017/11/18,00:40,0.934,1.499,0.952,1.776,1.223,0.503,0.920,0.854,��,7.0,��
2017/11/18,00:50,0.935,1.500,0.952,1.778,1.223,0.503,0.919,0.855,��쐼,7.0,��
2017/11/18,01:00,0.933,1.502,0.952,1.778,1.224,0.504,0.919,0.855,��쐼,7.1,��
2017/11/18,01:10,0.936,1.501,0.952,1.777,1.226,0.503,0.919,0.856,��쐼,7.1,��
2017/11/18,01:20,0.937,1.500,0.951,1.776,1.223,0.501,0.918,0.854,��쐼,7.5,��
2017/11/18,01:30,0.935,1.499,0.954,1.777,1.223,0.505,0.919,0.856,��쐼,7.6,��
2017/11/18,01:40,0.934,1.500,0.952,1.775,1.223,0.503,0.919,0.856,��쐼,7.1,��
2017/11/18,01:50,0.933,1.501,0.951,1.777,1.224,0.503,0.920,0.855,��쐼,6.8,��
2017/11/18,02:00,0.935,1.503,0.955,1.777,1.222,0.503,0.919,0.856,��,6.8,��
2017/11/18,02:10,0.935,1.503,0.954,1.778,1.225,0.503,0.917,0.856,��,7.4,��
2017/11/18,02:20,0.935,1.500,0.951,1.777,1.225,0.503,0.919,0.856,��,8.0,��
2017/11/18,02:30,0.937,1.499,0.952,1.776,1.223,0.504,0.919,0.857,��,7.9,��
2017/11/18,02:40,0.935,1.501,0.951,1.777,1.223,0.503,0.918,0.855,��,7.3,��
2017/11/18,02:50,0.938,1.503,0.953,1.777,1.224,0.504,0.917,0.856,��,7.1,��
2017/11/18,03:00,0.936,1.500,0.954,1.777,1.223,0.502,0.921,0.856,��,6.7,��
2017/11/18,03:10,0.937,1.501,0.953,1.780,1.224,0.504,0.918,0.855,��,5.0,��
2017/11/18,03:20,0.935,1.499,0.953,1.781,1.223,0.505,0.919,0.856,��,3.4,��
2017/11/18,03:30,0.935,1.503,0.954,1.779,1.227,0.504,0.920,0.855,��,3.7,��
2017/11/18,03:40,0.937,1.500,0.953,1.779,1.224,0.503,0.919,0.855,��쓌,5.1,��
2017/11/18,03:50,0.935,1.501,0.953,1.777,1.224,0.503,0.921,0.857,��쓌,4.7,��
2017/11/18,04:00,0.938,1.503,0.955,1.777,1.224,0.502,0.919,0.856,��쓌,4.1,��
2017/11/18,04:10,0.935,1.501,0.956,1.778,1.223,0.503,0.920,0.856,��,4.9,��
2017/11/18,04:20,0.936,1.501,0.953,1.779,1.223,0.504,0.921,0.855,��쐼,3.5,��
2017/11/18,04:30,0.938,1.501,0.953,1.778,1.223,0.504,0.920,0.855,��쐼,3.5,��
2017/11/18,04:40,0.936,1.502,0.954,1.779,1.226,0.504,0.918,0.856,��쐼,3.7,��
2017/11/18,04:50,0.935,1.503,0.956,1.782,1.224,0.505,0.918,0.858,��쐼,3.0,��
2017/11/18,05:00,0.938,1.501,0.954,1.781,1.223,0.504,0.919,0.856,��,3.6,��
2017/11/18,05:10,0.934,1.501,0.953,1.778,1.224,0.503,0.920,0.857,��,4.2,��
2017/11/18,05:20,0.937,1.501,0.954,1.778,1.222,0.503,0.920,0.856,��,4.9,��
2017/11/18,05:30,0.935,1.500,0.952,1.778,1.223,0.504,0.920,0.857,��,4.4,��
2017/11/18,05:40,0.936,1.502,0.953,1.778,1.224,0.503,0.920,0.856,��,4.3,��
2017/11/18,05:50,0.937,1.500,0.954,1.779,1.222,0.504,0.919,0.856,��,4.5,��
2017/11/18,06:00,0.937,1.501,0.954,1.780,1.226,0.505,0.920,0.857,��,4.4,��
2017/11/18,06:10,0.939,1.500,0.951,1.781,1.222,0.504,0.918,0.856,��쐼,4.6,��
2017/11/18,06:20,0.936,1.501,0.953,1.778,1.224,0.504,0.921,0.856,��,5.9,��
2017/11/18,06:30,0.937,1.499,0.955,1.779,1.222,0.504,0.919,0.857,��쓌,8.1,��
2017/11/18,06:40,0.939,1.503,0.954,1.781,1.223,0.505,0.920,0.857,��,7.4,��
2017/11/18,06:50,0.938,1.502,0.956,1.778,1.224,0.504,0.922,0.856,��쓌,8.1,��
2017/11/18,07:00,0.939,1.502,0.955,1.779,1.224,0.505,0.923,0.857,��쓌,7.0,��
2017/11/18,07:10,0.938,1.501,0.956,1.781,1.224,0.504,0.919,0.856,��쓌,7.3,��
2017/11/18,07:20,0.939,1.503,0.956,1.779,1.222,0.505,0.919,0.857,��쓌,7.6,��
2017/11/18,07:30,0.937,1.500,0.955,1.780,1.224,0.505,0.920,0.857,��쓌,5.8,��
2017/11/18,07:40,0.939,1.504,0.954,1.781,1.226,0.505,0.918,0.857,��쓌,7.4,��
2017/11/18,07:50,0.939,1.502,0.955,1.781,1.224,0.504,0.919,0.857,��쓌,8.9,��
2017/11/18,08:00,0.940,1.501,0.955,1.782,1.224,0.503,0.918,0.856,��,9.0,��
2017/11/18,08:10,0.940,1.500,0.956,1.778,1.226,0.506,0.916,0.859,��,7.9,��
2017/11/18,08:20,0.940,1.501,0.957,1.778,1.225,0.504,0.916,0.858,��,8.6,��
2017/11/18,08:30,0.938,1.501,0.957,1.781,1.224,0.505,0.918,0.859,��,8.1,��
2017/11/18,08:40,0.937,1.502,0.954,1.779,1.225,0.505,0.918,0.858,��,7.2,��
2017/11/18,08:50,0.938,1.501,0.957,1.778,1.223,0.506,0.918,0.858,��,6.9,��
2017/11/18,09:00,0.938,1.502,0.955,1.779,1.224,0.506,0.919,0.860,��,8.0,��
2017/11/18,09:10,0.937,1.497,0.957,1.782,1.226,0.504,0.917,0.858,��,8.2,��
2017/11/18,09:20,0.937,1.500,0.955,1.779,1.226,0.506,0.919,0.858,��,8.0,��
2017/11/18,09:30,0.938,1.500,0.957,1.782,1.226,0.507,0.920,0.857,��쐼,6.2,��
2017/11/18,09:40,0.940,1.500,0.956,1.784,1.226,0.507,0.916,0.859,��,4.2,��
2017/11/18,09:50,0.939,1.501,0.956,1.783,1.227,0.508,0.917,0.859,��,2.8,��
2017/11/18,10:00,0.939,1.501,0.958,1.783,1.229,0.506,0.915,0.857,��쐼,1.2,��
2017/11/18,10:10,0.940,1.500,0.958,1.783,1.227,0.508,0.915,0.859,��,0.8,��
2017/11/18,10:20,0.938,1.501,0.957,1.784,1.227,0.507,0.916,0.860,-,CALM,��
2017/11/18,10:30,0.940,1.499,0.958,1.783,1.228,0.506,0.915,0.858,���쓌,0.6,��
2017/11/18,10:40,0.939,1.504,0.957,1.783,1.228,0.508,0.915,0.859,��,1.7,��
2017/11/18,10:50,0.940,1.501,0.956,1.784,1.227,0.507,0.916,0.857,�쐼,1.2,��
2017/11/18,11:00,0.940,1.504,0.958,1.786,1.227,0.507,0.916,0.858,�쐼,1.2,��
2017/11/18,11:10,0.938,1.503,0.958,1.783,1.229,0.508,0.916,0.859,���쐼,1.2,��
2017/11/18,11:20,0.942,1.500,0.958,1.782,1.230,0.508,0.916,0.859,��,0.6,��
2017/11/18,11:30,0.940,1.502,0.960,1.785,1.227,0.507,0.918,0.859,-,CALM,��
2017/11/18,11:40,0.941,1.506,0.956,1.784,1.227,0.508,0.917,0.858,-,CALM,��
2017/11/18,11:50,0.941,1.503,0.958,1.786,1.230,0.507,0.918,0.860,���쓌,1.2,��
2017/11/18,12:00,0.941,1.505,0.958,1.785,1.227,0.508,0.917,0.862,�쓌,1.5,��
2017/11/18,12:10,0.940,1.503,0.957,1.786,1.228,0.506,0.918,0.860,��쓌,2.2,��
2017/11/18,12:20,0.942,1.503,0.958,1.782,1.231,0.506,0.917,0.861,��,2.0,��
2017/11/18,12:30,0.941,1.506,0.958,1.785,1.230,0.509,0.915,0.859,��쐼,1.7,��
2017/11/18,12:40,0.942,1.504,0.957,1.786,1.227,0.507,0.918,0.860,��,1.5,��
2017/11/18,12:50,0.941,1.501,0.958,1.786,1.230,0.508,0.918,0.860,��쐼,0.8,��
2017/11/18,13:00,0.940,1.504,0.959,1.783,1.230,0.507,0.917,0.858,-,CALM,��
2017/11/18,13:10,0.942,1.502,0.958,1.782,1.229,0.506,0.918,0.859,-,CALM,��
2017/11/18,13:20,0.942,1.503,0.958,1.784,1.228,0.508,0.918,0.858,-,CALM,��
2017/11/18,13:30,0.941,1.504,0.958,1.783,1.230,0.507,0.918,0.859,-,CALM,��
2017/11/18,13:40,0.941,1.501,0.958,1.784,1.227,0.507,0.917,0.860,��쓌,1.1,��
2017/11/18,13:50,0.941,1.504,0.957,1.784,1.229,0.508,0.917,0.859,��쓌,2.3,��
2017/11/18,14:00,0.939,1.502,0.957,1.785,1.228,0.507,0.918,0.858,��쓌,1.9,��
2017/11/18,14:10,0.942,1.503,0.958,1.787,1.230,0.508,0.918,0.858,��,3.8,��
2017/11/18,14:20,0.939,1.503,0.958,1.783,1.227,0.506,0.918,0.859,��,5.9,��
2017/11/18,14:30,0.942,1.503,0.959,1.786,1.229,0.508,0.917,0.859,��,6.9,��
2017/11/18,14:40,0.941,1.502,0.958,1.783,1.226,0.508,0.917,0.859,��,4.5,��
2017/11/18,14:50,0.940,1.500,0.956,1.783,1.227,0.506,0.920,0.860,��쐼,6.3,��
2017/11/18,15:00,0.939,1.505,0.958,1.785,1.230,0.508,0.918,0.860,��쐼,7.7,��
2017/11/18,15:10,0.941,1.504,0.959,1.785,1.226,0.507,0.917,0.861,�쐼,3.3,��
2017/11/18,15:20,0.941,1.505,0.957,1.785,1.226,0.507,0.918,0.859,��쐼,4.7,��
2017/11/18,15:30,0.940,1.502,0.958,1.780,1.227,0.507,0.919,0.860,��쐼,5.1,��
2017/11/18,15:40,0.940,1.502,0.957,1.786,1.226,0.506,0.918,0.860,���쐼,3.5,��
2017/11/18,15:50,0.939,1.503,0.956,1.785,1.229,0.507,0.919,0.858,�쐼,3.6,��
2017/11/18,16:00,0.940,1.507,0.957,1.786,1.226,0.507,0.918,0.858,��,3.1,��
2017/11/18,16:10,0.941,1.504,0.959,1.785,1.226,0.508,0.918,0.860,���k��,3.8,��
2017/11/18,16:20,0.939,1.503,0.956,1.783,1.228,0.507,0.916,0.860,���k��,4.8,��
2017/11/18,16:30,0.937,1.505,0.958,1.784,1.229,0.508,0.916,0.859,��,7.4,��
2017/11/18,16:40,0.937,1.504,0.958,1.783,1.229,0.508,0.918,0.860,��,7.4,��
2017/11/18,16:50,0.938,1.506,0.960,1.785,1.229,0.508,0.918,0.858,��,7.1,��
2017/11/18,17:00,0.939,1.504,0.960,1.783,1.228,0.506,0.918,0.858,��,6.4,��
2017/11/18,17:10,0.937,1.506,0.958,1.784,1.227,0.507,0.917,0.859,��,6.0,��
2017/11/18,17:20,0.938,1.506,0.959,1.784,1.228,0.506,0.919,0.860,��,6.2,��
2017/11/18,17:30,0.936,1.507,0.959,1.786,1.226,0.506,0.920,0.860,��,6.3,��
2017/11/18,17:40,0.938,1.508,0.958,1.785,1.226,0.507,0.919,0.860,��,5.6,��
2017/11/18,17:50,0.935,1.506,0.958,1.783,1.227,0.506,0.919,0.859,���k��,5.8,��
2017/11/18,18:00,0.935,1.507,0.959,1.786,1.229,0.508,0.919,0.857,�k��,4.7,��
2017/11/18,18:10,0.936,1.506,0.964,1.784,1.228,0.508,0.918,0.860,�k,7.0,��
2017/11/18,18:20,0.937,1.506,0.959,1.783,1.228,0.506,0.917,0.860,�k,6.7,��
2017/11/18,18:30,0.935,1.506,0.958,1.785,1.229,0.506,0.918,0.860,�k�k��,6.2,��
2017/11/18,18:40,0.936,1.505,0.958,1.783,1.228,0.507,0.917,0.859,�k�k��,6.3,�L
2017/11/18,18:50,0.936,1.507,0.959,1.787,1.228,0.506,0.917,0.859,�k�k��,7.2,��
2017/11/18,19:00,0.932,1.506,0.960,1.785,1.227,0.506,0.919,0.859,�k�k��,7.9,�L
2017/11/18,19:10,0.937,1.503,0.959,1.787,1.225,0.507,0.917,0.858,�k�k��,7.8,��
2017/11/18,19:20,0.937,1.508,0.958,1.784,1.229,0.507,0.918,0.858,�k�k��,7.5,�L
2017/11/18,19:30,0.938,1.504,0.959,1.783,1.227,0.506,0.916,0.857,�k�k��,8.0,��
2017/11/18,19:40,0.936,1.506,0.958,1.785,1.228,0.507,0.918,0.860,�k�k��,7.4,�L
2017/11/18,19:50,0.937,1.507,0.957,1.784,1.226,0.506,0.917,0.861,�k�k��,7.5,�L
2017/11/18,20:00,0.936,1.505,0.956,1.785,1.227,0.508,0.916,0.858,�k�k��,9.2,�L
2017/11/18,20:10,0.935,1.505,0.956,1.784,1.228,0.505,0.918,0.858,�k�k��,10.9,�L
2017/11/18,20:20,0.935,1.506,0.955,1.787,1.226,0.506,0.916,0.858,�k�k��,9.8,�L
2017/11/18,20:30,0.935,1.505,0.958,1.782,1.227,0.507,0.918,0.858,�k�k��,9.2,�L
2017/11/18,20:40,0.935,1.506,0.956,1.785,1.226,0.506,0.917,0.858,�k�k��,7.6,�L
2017/11/18,20:50,0.935,1.506,0.956,1.785,1.227,0.507,0.915,0.856,�k��,8.0,�L
2017/11/18,21:00,0.935,1.505,0.957,1.786,1.226,0.507,0.918,0.857,�k�k��,8.1,�L
2017/11/18,21:10,0.935,1.504,0.959,1.787,1.226,0.506,0.918,0.860,�k��,8.9,�L
2017/11/18,21:20,0.935,1.508,0.958,1.784,1.227,0.506,0.918,0.858,�k�k��,8.5,�L
2017/11/18,21:30,0.936,1.504,0.960,1.785,1.227,0.506,0.917,0.858,�k�k��,7.4,�L
2017/11/18,21:40,0.935,1.506,0.957,1.786,1.226,0.505,0.918,0.859,�k��,9.0,�L
2017/11/18,21:50,0.937,1.507,0.959,1.788,1.225,0.506,0.919,0.859,�k��,8.1,�L
2017/11/18,22:00,0.936,1.504,0.958,1.788,1.227,0.507,0.918,0.858,�k��,9.6,�L
2017/11/18,22:10,0.936,1.506,0.960,1.789,1.227,0.507,0.916,0.858,�k�k��,10.3,�L
2017/11/18,22:20,0.936,1.508,0.958,1.786,1.227,0.507,0.916,0.858,�k��,10.2,�L
2017/11/18,22:30,0.935,1.504,0.957,1.786,1.229,0.507,0.917,0.859,�k��,8.1,�L
2017/11/18,22:40,0.934,1.501,0.958,1.783,1.228,0.507,0.916,0.858,�k��,11.4,��
2017/11/18,22:50,0.935,1.506,0.957,1.787,1.229,0.507,0.918,0.857,�k��,12.7,��
2017/11/18,23:00,0.935,1.502,0.956,1.787,1.228,0.505,0.916,0.858,�k��,11.4,�L
2017/11/18,23:10,0.934,1.504,0.956,1.785,1.225,0.508,0.915,0.860,�k�k��,10.4,�L
2017/11/18,23:20,0.934,1.507,0.958,1.785,1.226,0.505,0.915,0.859,�k�k��,9.9,��
2017/11/18,23:30,0.934,1.504,0.955,1.786,1.225,0.506,0.915,0.859,�k��,9.1,�L
2017/11/18,23:40,0.935,1.502,0.956,1.785,1.226,0.505,0.915,0.859,�k��,9.8,�L
2017/11/18,23:50,0.932,1.506,0.957,1.786,1.226,0.505,0.916,0.857,�k��,9.7,�L
